Portada
METAR-TAF:

METAR-TAF

Aeropuertos :

McKinley Park, Alaska, Estados Unidos

latitud: 63-44N, longitud: 148-55W, altitud: 524 m

Observación

El informe se hizo hace 19 minutos, a las 12:39 UTC
Viento calma
Temperatura -24°C
Humedad 76%
Presión 997 hPa
Visibilidad: 16.1 km
Escasas nubes a una altura de 800 ft

METAR: PAIN 031239Z AUTO 00000KT 10SM FEW008 M24/M27 A2945 RMK AO2 FZRANO

Hora: 03:58 (12:58 UTC)


TAF: falta

Observaciones y pronósticos meteorológicos de más de 4000 aeropuertos (mensajes METAR y TAF).

Los puntos amarillos y rojos representan las estaciones disponibles.

Ponga el ratón en el punto deseado para ver el nombre de la estación.

Haga clic para ver las observaciones y los pronósticos meteorológicos.

Para cambiar el mapa : haga clic en los botones verdes con una cruz de color negro para hacer un zoom, en el botón verde con un guión para alejar o en las flechas verdes para mapas adyacentes.


METAR-TAF: